Hourly Data Report for October 16, 2014

All times are specified in Local Standard Time (LST). Add 1 hour to adjust for Daylight Saving Time where and when it is observed.

FREDERICTON
NEW BRUNSWICK

45°52'08.000" N
66°32'14.000" W
20.70 m
8101505
71700
YFC

Download Data

Hourly Data (October 2014)
Hourly Data Report for October 16, 2014
Temp Definition
°C
Dew Point Temp Definition
°C
Rel Hum Definition
%
Wind Dir Definition
10's deg

Wind Spd Definition
km/h
Visibility Definition
km
Stn Press Definition
kPa
Hmdx Definition


Wind Chill Definition


Weather Definition


TIME
00:00 Legend Double Dagger 16.8 16.2 96 12 5 16.1 101.50     LegendNANA
01:00 Legend Double Dagger 16.9 16.1 95   0 16.1 101.49     LegendNANA
02:00 Legend Double Dagger 16.2 15.7 97 4 9 16.1 101.49     LegendNANA
03:00 Legend Double Dagger 16.1 15.5 96 6 11 16.1 101.47     LegendNANA
04:00 Legend Double Dagger 13.7 12.1 90 2 9 16.1 101.49     LegendNANA
05:00 Legend Double Dagger 12.6 11.8 95 3 9 6.4 101.54     Fog
06:00 Legend Double Dagger 11.7 11.4 98 3 13 3.6 101.54     Fog
07:00 Legend Double Dagger 11.4 11.1 98 2 11 2.0 101.59     Rain,Fog
08:00 Legend Double Dagger 11.5 11.2 98 2 11 2.0 101.60     Fog
09:00 Legend Double Dagger 11.8 11.5 98 1 11 2.8 101.64     Fog
10:00 Legend Double Dagger 12.2 11.9 98 4 11 3.2 101.63     Fog
11:00 Legend Double Dagger 12.5 12.2 98 2 11 11.3 101.63     Rain
12:00 Legend Double Dagger 13.1 12.3 95 6 13 16.1 101.57     LegendNANA
13:00 Legend Double Dagger 13.6 12.9 95 5 11 16.1 101.52     LegendNANA
14:00 Legend Double Dagger 14.4 13.4 94 6 13 16.1 101.47     LegendNANA
15:00 Legend Double Dagger 14.4 13.6 95 6 11 16.1 101.46     LegendNANA
16:00 Legend Double Dagger 14.3 13.8 97 7 15 6.4 101.43     Fog
17:00 Legend Double Dagger 14.0 13.7 98 5 13 6.4 101.40     Fog
18:00 Legend Double Dagger 13.7 13.6 99 4 11 1.6 101.41     Rain,Fog
19:00 Legend Double Dagger 13.6 13.5 99 4 9 2.4 101.40     Rain,Fog
20:00 Legend Double Dagger 13.6 13.3 98 4 13 4.8 101.37     Rain,Fog
21:00 Legend Double Dagger 13.5 13.2 98 5 13 9.7 101.32     Fog
22:00 Legend Double Dagger 13.5 13.2 98 4 15 16.1 101.25     LegendNANA
23:00 Legend Double Dagger 13.4 13.1 98 6 11 4.8 101.17     Rain,Fog

Notes on Data Quality.

Legend

  • E = Estimated
  • M = Missing
  • NA = Not Available
  • ‡ = Partner data that is not subject to review by the National Climate Archives
Date modified: